Flag for Mexico

Past Weather in 20°33'31"N, 100°16'22"W, Mexico — Yesterday and Last 2 Weeks

Now
64 °F

Partly cloudy.


Feels Like: 64 °F
Forecast: 79 / 60 °F
Wind: 9 mph from East

Location: Queretaro - Qro.
Current Time: Aug 13, 2020 at 1:19:34 am
Latest Report: Aug 13, 2020 at 12:40 am
Visibility: 6 mi
Pressure30.36 "Hg
Humidity: 73%
Dew Point: 55 °F
Location of 20°33'31"N, 100°16'22"WLocation

Past Weather in 20°33'31"N, 100°16'22"W — Graph

°F

20°33'31"N, 100°16'22"W Temperature Yesterday

Maximum temperature yesterday: 79 °F (at 3:41 pm)
Minimum temperature yesterday: 57 °F (at 5:41 am)
Average temperature yesterday: 67 °F

High & Low Weather Summary for the Past Weeks

 TemperatureHumidityPressure
High79 °F (Jul 30, 4:55 pm)100% (Jul 28, 11:48 pm)30.43 "Hg (Jul 28, 11:48 pm)
Low55 °F (Aug 6, 6:42 am)37% (Aug 12, 4:40 pm)29.53 "Hg (Aug 5, 12:52 pm)
Average66 °F75%30.32 "Hg
* Reported Jul 28 11:48 pm — Aug 12 11:41 pm, 20°33'31"N, 100°16'22"W. Weather by CustomWeather, © 2020

Note: Actual official high and low records may vary slightly from our data, if they occured in-between our weather recording intervals... More about our weather records

20°33'31"N, 100°16'22"W Weather History for the Previous 24 Hours

Scroll right to see more
 ConditionsComfort  
Time TempWeatherWind HumidityBarometerVisibility
11:41 pm
Wed, Aug 12
64 °FPassing clouds.9 mph73%30.35 "Hg6 mi
10:40 pm64 °FPassing clouds.5 mph68%30.33 "Hg6 mi
9:40 pm68 °FPassing clouds.13 mph64%30.31 "Hg6 mi
8:40 pm68 °FPassing clouds.17 mph60%30.26 "Hg6 mi
7:40 pm72 °FPartly sunny.20 mph53%30.23 "Hg7 mi
6:40 pm75 °FPartly sunny.17 mph47%30.21 "Hg7 mi
5:40 pm77 °FBroken clouds.17 mph44%30.19 "Hg8 mi
4:40 pm79 °FBroken clouds.13 mph37%30.20 "Hg8 mi
3:41 pm79 °FBroken clouds.12 mph39%30.22 "Hg8 mi
2:41 pm77 °FBroken clouds.13 mph42%30.25 "Hg8 mi
2:00 pm77 °FBroken clouds.14 mph42%30.26 "Hg8 mi
12:42 pm73 °FBroken clouds.12 mph50%30.29 "Hg8 mi
11:41 am70 °FBroken clouds.17 mph60%30.32 "Hg8 mi
10:43 am66 °FPartly sunny.8 mph64%30.32 "Hg8 mi
9:42 am63 °FPartly sunny.9 mph73%30.34 "Hg8 mi
8:44 am63 °FBroken clouds.12 mph77%30.32 "Hg7 mi
7:41 am61 °FMore clouds than sun.5 mph83%30.33 "Hg6 mi
6:43 am61 °FPassing clouds.8 mph83%30.30 "Hg6 mi
5:41 am57 °FPassing clouds.6 mph94%30.31 "Hg8 mi
4:41 am59 °FPassing clouds.6 mph88%30.30 "Hg8 mi
3:40 am59 °FPassing clouds.No wind88%30.30 "Hg8 mi
2:40 am61 °FPassing clouds.5 mph83%30.32 "Hg8 mi
1:40 am61 °FPassing clouds.8 mph83%30.32 "Hg8 mi
Weather by CustomWeather, © 2020

See weather overview